Location: La Pernelle
(49.6188°N, 1.2999°W)
Time: 17:51:48
(UTC+00:00)

SL-16 R/B - Pass Details

Date: 27 October 2021
Orbit: 842 x 846 km, 71.0° (Epoch: 28 November)

Event Time Altitude Azimuth Distance (km) Brightness Sun altitude
Rises 18:53:02 0° 233° (SW) 3,394 6.1 -20.2°
Reaches altitude 10° 18:55:38 10° 241° (WSW) 2,463 5.4 -20.7°
Maximum altitude 19:00:54 39° 310° (NW) 1,260 3.5 -21.5°
Drops below altitude 10° 19:06:12 10° 18° (NNE) 2,478 4.5 -22.4°
Enters shadow 19:07:49 - 24° (NNE) 3,049 4.9 -22.6°
